{"data":{"norad_id":56299,"intl_designator":"2023-056P","name":"STARLINK-30108","alt_names":[],"object_type":"PAYLOAD","status":"ACTIVE","operator":null,"country":"US","launch_date":"2023-04-19","launch_site_code":"AFETR","launch_vehicle":null,"mission":null,"orbit_class":"UNKNOWN","rcs_meters":null,"size_class":null,"mass_kg":null,"dimensions":null,"purposes":["comms"],"wikipedia_slug":null,"has_3d_model":false,"image_url":null,"decayed_at":null,"tle_current":{"epoch":"2026-09-20T02:50:38.767200Z","epoch_age_seconds":141752,"freshness":"FRESH","line1":"1 56299U 23056P   26263.11850425 -.00000115  00000+0  53460-5 0  9992","line2":"2 56299  43.0011 179.6799 0001297 269.7738  90.2965 15.27577444189961","mean_motion":15.27577444,"eccentricity":0.0001297,"inclination_deg":43.0011,"raan_deg":179.6799,"arg_perigee_deg":269.7738,"mean_anomaly_deg":90.2965,"bstar":5.346e-6,"rev_number":18996,"period_min":94.266906444319,"perigee_km":482.16685280451,"apogee_km":483.94664646317,"semimajor_km":6861.1937496338,"source":"CELESTRAK","updated_at":"2026-09-21T09:00:33.393757Z"}}}